User: anonymous   Login
Location: Mt. Cuba Astronomical Observatory
(39.8100°N, 75.6300°W)
Time: 18:04:43
(UTC-05:00)
Language:

Cosmos 2058 - Orbit

View from above orbital plane
View from above orbital plane
View from above satellite
View from above satellite

Ground track
Ground track

The orbit data is extracted from the following two-line orbital elements,

1 20465U 90010A   18051.90579503 +.00000285 +00000-0 +21967-4 0  9994
2 20465 082.4911 008.6892 0015634 171.1174 189.0329 14.97674785501453
Epoch (UTC): 20 February 2018 21:44:20
Eccentricity: 0.0015634
inclination: 82.4911°
perigee height: 563 km
apogee height: 585 km
right ascension of ascending node: 8.6892°
argument of perigee: 171.1174°
revolutions per day: 14.97674785
mean anomaly at epoch: 189.0329°
orbit number at epoch: 50145

The dashed part of the orbit path shows where the satellite is in the earth's shadow,  

DLR